Location: Ciserano
(45.5833°N, 9.6000°E)
Time: 07:30:59
(UTC+00:00)

Cosmos 1295 Rocket - Pass Details

Date: 25 April 2021
Orbit: 944 x 993 km, 82.9° (Epoch: 13 May)

Event Time Altitude Azimuth Distance (km) Brightness Sun altitude
Rises 00:09:18 0° 345° (NNW) 3,688 8.4 -30.2°
Reaches altitude 10° 00:11:56 10° 339° (NNW) 2,742 7.5 -30.0°
Enters shadow 00:17:14 41° 284° (WNW) 1,394 5.2 -29.8°
